Regional Weather Roundup
Issued by NWS

Home | Current Version | Previous Version | Text Only | Print | Product List | Glossary Off
Versions: 1 2 3 4 5 6 7 8 9 10 11 12 13 14 15 16 17 18 19 20 21 22 23 24 25 26 27 28 29 30 31 32 33 34 35 36 37 38 39 40 41 42 43 44 45 46 47 48 49 50

000
ASUS43 KOAX 232310
RWRNE

WEATHER ROUNDUP FOR NEBRASKA
NATIONAL WEATHER SERVICE OMAHA NE
600 PM CDT TUE AUG 23 2016

NOTES: SATELLITE DATA IS BEING USED TO AUGMENT CLOUD COVER ABOVE
       12000 FEET.
       "FAIR" INDICATES FEW OR NO CLOUDS BELOW 12,000 FEET WITH NO
       SIGNIFICANT WEATHER AND/OR OBSTRUCTIONS TO VISIBILITY.

  * THESE STATIONS DO NOT REPORT WEATHER SUCH AS RAIN...SNOW OR FOG.

NEZ001>004-019>022-054>056-240000-
NEBRASKA PANHANDLE

CITY           SKY/WX    TMP DP  RH WIND       PRES   REMARKS
SCOTTSBLUFF    MOSUNNY   84  36  18 N14       29.98S
ALLIANCE       SUNNY     83  37  19 NE17G24   29.97R
CHADRON        SUNNY     87  27  11 NE17      29.95R
SIDNEY         SUNNY     87  30  13 N17       30.02R
$$

NEZ057>060-069>072-079>082-240000-
SOUTHWEST NEBRASKA

CITY           SKY/WX    TMP DP  RH WIND       PRES   REMARKS
NORTH PLATTE   MOSUNNY   87  49  26 N12       29.87R
IMPERIAL       SUNNY     90  37  15 N17       29.91R
LEXINGTON      SUNNY     88  65  45 E3        29.82S HX  90
MCCOOK         MOSUNNY   93  51  23 N9        29.82S HX  90
OGALLALA       SUNNY     90  34  13 N15G22    29.92R
$$

NEZ005>010-023>029-035>040-094-240000-
NORTH CENTRAL NEBRASKA

CITY           SKY/WX    TMP DP  RH WIND       PRES   REMARKS
VALENTINE      SUNNY     85  42  22 N17G25    29.89R
AINSWORTH      SUNNY     82  55  38 NW17      29.87S
BROKEN BOW     SUNNY     87  67  51 S6        29.82S HX  90
O`NEILL        SUNNY     89  63  42 S12       29.80S HX  90
ORD            SUNNY     88  66  48 S8        29.79F HX  90
THEDFORD       SUNNY     86  49  28 N16G26    29.90R
$$

NEZ041-046>049-061>064-073>077-083>087-240000-
SOUTH CENTRAL NEBRASKA

CITY           SKY/WX    TMP DP  RH WIND       PRES   REMARKS
GRAND ISLAND   PTSUNNY   90  68  48 S10       29.79F HX  94
AURORA         PTSUNNY   88  69  53 S10       29.79F HX  92
HASTINGS       PTSUNNY   91  67  44 S8G18     29.80F HX  94
HEBRON         MOSUNNY   88  71  56 S15G25    29.81S HX  94
HOLDREGE       SUNNY     88  66  47 N3        29.81F HX  90
KEARNEY *      SUNNY     91  66  43 S7        29.78F HX  94
YORK           SUNNY     88  72  58 S13G21    29.80F HX  94
$$

NEZ011>018-030>034-042>045-240000-
NORTHEAST NEBRASKA

CITY           SKY/WX    TMP DP  RH WIND       PRES   REMARKS
NORFOLK        PTSUNNY   85  71  63 S9        29.80R HX  90
ALBION         PTSUNNY   86  72  62 S8        29.80S HX  92
BLAIR          CLOUDY    82  74  77 SE16      29.83F
FREMONT        PTSUNNY   84  73  69 S14       29.82R HX  90
TEKAMAH        MOSUNNY   83  74  74 SE12      29.81S
WAYNE          CLOUDY    82  75  78 S12       29.80S
$$

NEZ050>053-065>068-078-088>093-240000-
SOUTHEAST NEBRASKA

CITY           SKY/WX    TMP DP  RH WIND       PRES   REMARKS
LINCOLN        PTSUNNY   89  73  59 S22G28    29.80F HX  97
OMAHA EPPLEY   PTSUNNY   84  74  71 SE17      29.82S HX  91
BEATRICE       SUNNY     88  72  59 S18G26    29.83S HX  94
FALLS CITY     PTSUNNY   88  72  58 S18G32    29.86S HX  94
NEBRASKA CITY  MOSUNNY   84  75  74 S16       29.85F HX  93
PLATTSMOUTH    PTSUNNY   80  71  74 SE13G20   29.84S
$$

NEZ044-045-051>053-067-240000-
OMAHA AREA

CITY           SKY/WX    TMP DP  RH WIND       PRES   REMARKS
OMAHA EPPLEY   PTSUNNY   84  74  71 SE17      29.82S HX  91
BLAIR          CLOUDY    82  74  77 SE16      29.83F
FREMONT        PTSUNNY   84  73  69 S14       29.82R HX  90
MILLARD        CLOUDY    84  76  75 SE13G21   29.81F HX  92
OFFUTT AFB     TSTM      82  72  69 SE18      29.82S
PLATTSMOUTH    PTSUNNY   80  71  74 SE13G20   29.84S
WAHOO          MOCLDY    85  75  72 SE8       29.80F HX  93
$$



USA.gov is the U.S. government's official web portal to all federal, state and local government web resources and services.